Grosse Ile, MI

9:19 AM EDT on August 22, 2017 (GMT -0400)
Grosse Ile Municipal

Weather History for KONZ - February, 2013

Change the Weather History Date:

Monday, February 18, 2013

  Actual Average (KDTW) Record (KDTW)
Temperature  
Mean Temperature 29 °F -  
Max Temperature 39 °F 36 °F 69 °F (2017)
Min Temperature 19 °F 21 °F -9 °F (1936)
Degree Days  
Heating Degree Days 36    
Moisture  
Dew Point 22 °F    
Average Humidity 69    
Maximum Humidity 81    
Minimum Humidity 59    
Precipitation  
Precipitation 0.00 in - - ()
Sea Level Pressure  
Sea Level Pressure 29.96 in    
Wind  
Wind Speed 12 mph (SSE)    
Max Wind Speed 17 mph    
Max Gust Speed 23 mph    
Visibility 10 miles    
Events      
Averages and records for this station are not official NWS values.
T = Trace of Precipitation, MM = Missing Value Source: NWS Daily Summary

Daily Weather History Graph

Daily Weather History Graph

Search for Another Location

Airport or City:

Trip Planner

Search our weather history database for the weather conditions in past years. The results will help you decide how hot, cold, wet, or windy it might be!

Date:

Astronomy

Feb. 18, 2013 Rise Set
Actual Time 7:24 AM EST 6:09 PM EST
Civil Twilight 6:55 AM EST 6:38 PM EST
Nautical Twilight 6:23 AM EST 7:10 PM EST
Astronomical Twilight 5:50 AM EST 7:43 PM EST
Moon 11:51 AM EST (2/18) 2:05 AM EST (2/18)
Length of Visible Light 11h 42m
Length of Day
10h 45m
First Quarter, 58% of the Moon is Illuminated
Feb 18
First Quarter
Feb 25
Full
Mar 4
Last Quarter
Mar 11
New
Mar 19
First Quarter

Hourly Weather History & Observations

Time (EST) Temp. Windchill Dew Point Humidity Pressure Visibility Wind Dir Wind Speed Gust Speed Precip Events Conditions
12:14 AM 19.4 °F 12.8 °F 8.6 °F 63% 30.20 in 10.0 mi ESE 4.6 mph - N/A   Clear
12:34 AM 21.2 °F 9.5 °F 12.2 °F 68% 30.20 in 10.0 mi SSE 11.5 mph - N/A   Clear
12:54 AM 23.0 °F 12.4 °F 12.2 °F 63% 30.20 in 10.0 mi SSE 10.4 mph - N/A   Clear
1:14 AM 23.0 °F 11.1 °F 12.2 °F 63% 30.20 in 10.0 mi South 12.7 mph - N/A   Clear
1:34 AM 23.0 °F 11.1 °F 10.4 °F 59% 30.19 in 10.0 mi SSE 12.7 mph - N/A   Clear
1:54 AM 23.0 °F 11.7 °F 10.4 °F 59% 30.19 in 10.0 mi South 11.5 mph - N/A   Clear
2:14 AM 23.0 °F 12.4 °F 12.2 °F 63% 30.19 in 10.0 mi SSE 10.4 mph - N/A   Clear
2:34 AM 23.0 °F 13.1 °F 14.0 °F 68% 30.19 in 10.0 mi SSE 9.2 mph - N/A   Clear
2:54 AM 23.0 °F 12.4 °F 15.8 °F 74% 30.19 in 10.0 mi South 10.4 mph - N/A   Clear
3:14 AM 23.0 °F 11.7 °F 15.8 °F 74% 30.19 in 10.0 mi South 11.5 mph - N/A   Clear
3:34 AM 23.0 °F 11.7 °F 15.8 °F 74% 30.18 in 10.0 mi South 11.5 mph - N/A   Clear
3:54 AM 24.8 °F 12.9 °F 15.8 °F 69% 30.17 in 10.0 mi South 13.8 mph - N/A   Clear
4:14 AM 23.0 °F 10.1 °F 15.8 °F 74% 30.17 in 10.0 mi South 15.0 mph - N/A   Clear
4:34 AM 24.8 °F 11.9 °F 15.8 °F 69% 30.16 in 10.0 mi South 16.1 mph - N/A   Scattered Clouds
4:54 AM 24.8 °F 11.9 °F 15.8 °F 69% 30.15 in 10.0 mi South 16.1 mph - N/A   Scattered Clouds
5:14 AM 24.8 °F 12.4 °F 15.8 °F 69% 30.16 in 10.0 mi South 15.0 mph 19.6 mph N/A   Clear
5:35 AM 24.8 °F 12.4 °F 14.0 °F 64% 30.15 in 10.0 mi South 15.0 mph - N/A   Clear
5:54 AM 24.8 °F 12.9 °F 15.8 °F 69% 30.14 in 10.0 mi South 13.8 mph 20.7 mph N/A   Clear
6:14 AM 24.8 °F 13.4 °F 14.0 °F 64% 30.14 in 10.0 mi South 12.7 mph 17.3 mph N/A   Scattered Clouds
6:34 AM 24.8 °F 12.4 °F 15.8 °F 69% 30.12 in 10.0 mi SSE 15.0 mph - N/A   Mostly Cloudy
6:54 AM 24.8 °F 12.4 °F 15.8 °F 69% 30.12 in 10.0 mi SSE 15.0 mph 19.6 mph N/A   Overcast
7:14 AM 23.0 °F 10.6 °F 15.8 °F 74% 30.13 in 10.0 mi SSE 13.8 mph 19.6 mph N/A   Overcast
7:34 AM 23.0 °F 10.6 °F 15.8 °F 74% 30.12 in 10.0 mi SSE 13.8 mph - N/A   Overcast
7:54 AM 23.0 °F 10.1 °F 15.8 °F 74% 30.11 in 10.0 mi SSE 15.0 mph - N/A   Overcast
8:14 AM 24.8 °F 12.4 °F 15.8 °F 69% 30.10 in 10.0 mi SSE 15.0 mph - N/A   Overcast
8:34 AM 24.8 °F 12.4 °F 14.0 °F 64% 30.09 in 10.0 mi SSE 15.0 mph 21.9 mph N/A   Mostly Cloudy
8:54 AM 24.8 °F 11.5 °F 14.0 °F 64% 30.09 in 10.0 mi SSE 17.3 mph 23.0 mph N/A   Mostly Cloudy
9:14 AM 24.8 °F 13.4 °F 15.8 °F 69% 30.08 in 10.0 mi SSE 12.7 mph - N/A   Clear
9:34 AM 26.6 °F 15.2 °F 15.8 °F 64% 30.06 in 10.0 mi SSE 13.8 mph 20.7 mph N/A   Clear
9:54 AM 26.6 °F 16.2 °F 15.8 °F 64% 30.05 in 10.0 mi SSE 11.5 mph 17.3 mph N/A   Clear
10:14 AM 26.6 °F 16.8 °F 15.8 °F 64% 30.03 in 10.0 mi SSE 10.4 mph 19.6 mph N/A   Clear
10:34 AM 26.6 °F 14.7 °F 17.6 °F 69% 30.03 in 10.0 mi SSE 15.0 mph 19.6 mph N/A   Clear
10:54 AM 28.4 °F 17.5 °F 17.6 °F 64% 30.02 in 10.0 mi SSE 13.8 mph - N/A   Clear
11:14 AM 28.4 °F 17.0 °F 17.6 °F 64% 30.01 in 10.0 mi SSE 15.0 mph 20.7 mph N/A   Clear
11:34 AM 28.4 °F 16.6 °F 17.6 °F 64% 29.99 in 10.0 mi SSE 16.1 mph 19.6 mph N/A   Clear
11:54 AM 30.2 °F 19.8 °F 19.4 °F 64% 29.98 in 10.0 mi SSE 13.8 mph 21.9 mph N/A   Clear
12:14 PM 30.2 °F 19.8 °F 19.4 °F 64% 29.97 in 10.0 mi SSE 13.8 mph 20.7 mph N/A   Clear
12:34 PM 32.0 °F 22.5 °F 21.2 °F 64% 29.96 in 10.0 mi SSE 12.7 mph 18.4 mph N/A   Clear
12:54 PM 33.8 °F 23.9 °F 21.2 °F 60% 29.94 in 10.0 mi SSE 15.0 mph 19.6 mph N/A   Clear
1:14 PM 33.8 °F 24.3 °F 23.0 °F 65% 29.93 in 10.0 mi SSE 13.8 mph 18.4 mph N/A   Clear
1:34 PM 33.8 °F 24.3 °F 24.8 °F 70% 29.91 in 10.0 mi SE 13.8 mph 19.6 mph N/A   Clear
1:54 PM 35.6 °F 26.6 °F 24.8 °F 65% 29.90 in 10.0 mi SE 13.8 mph - N/A   Clear
2:14 PM 35.6 °F 26.6 °F 24.8 °F 65% 29.89 in 10.0 mi SE 13.8 mph - N/A   Clear
2:34 PM 35.6 °F 27.5 °F 26.6 °F 70% 29.89 in 10.0 mi SE 11.5 mph - N/A   Clear
2:54 PM 37.4 °F 29.8 °F 26.6 °F 65% 29.87 in 10.0 mi SE 11.5 mph 18.4 mph N/A   Clear
3:14 PM 37.4 °F 29.3 °F 26.6 °F 65% 29.86 in 10.0 mi SE 12.7 mph 18.4 mph N/A   Clear
3:34 PM 37.4 °F 28.9 °F 26.6 °F 65% 29.85 in 10.0 mi SSE 13.8 mph 18.4 mph N/A   Clear
3:54 PM 37.4 °F 29.3 °F 26.6 °F 65% 29.85 in 10.0 mi SE 12.7 mph 19.6 mph N/A   Clear
4:14 PM 37.4 °F 28.9 °F 28.4 °F 70% 29.83 in 10.0 mi SE 13.8 mph 19.6 mph N/A   Clear
4:34 PM 39.2 °F 30.8 °F 28.4 °F 65% 29.82 in 10.0 mi SSE 15.0 mph - N/A   Clear
4:54 PM 39.2 °F 31.2 °F 28.4 °F 65% 29.81 in 10.0 mi SE 13.8 mph 19.6 mph N/A   Clear
5:14 PM 39.2 °F 32.0 °F 28.4 °F 65% 29.80 in 10.0 mi SE 11.5 mph - N/A   Clear
5:34 PM 39.2 °F 32.0 °F 30.2 °F 70% 29.80 in 10.0 mi SE 11.5 mph 18.4 mph N/A   Scattered Clouds
5:54 PM 39.2 °F 31.6 °F 30.2 °F 70% 29.79 in 10.0 mi SE 12.7 mph 17.3 mph N/A   Mostly Cloudy
6:14 PM 39.2 °F 30.5 °F 30.2 °F 70% 29.77 in 10.0 mi SSE 16.1 mph 21.9 mph N/A   Mostly Cloudy
6:34 PM 39.2 °F 30.8 °F 30.2 °F 70% 29.77 in 10.0 mi SSE 15.0 mph 20.7 mph N/A   Overcast
6:54 PM 39.2 °F 31.6 °F 30.2 °F 70% 29.77 in 10.0 mi SSE 12.7 mph 20.7 mph N/A   Overcast
7:14 PM 37.4 °F 30.8 °F 32.0 °F 81% 29.78 in 10.0 mi SSE 9.2 mph - N/A   Light Drizzle
7:34 PM 37.4 °F 31.4 °F 32.0 °F 81% 29.77 in 10.0 mi South 8.1 mph - N/A   Overcast
7:54 PM 37.4 °F 31.4 °F 32.0 °F 81% 29.76 in 10.0 mi SSE 8.1 mph - N/A   Overcast
8:14 PM 37.4 °F 30.8 °F 30.2 °F 75% 29.75 in 10.0 mi SSE 9.2 mph - N/A   Overcast
8:34 PM 37.4 °F 32.1 °F 30.2 °F 75% 29.73 in 10.0 mi SSE 6.9 mph - N/A   Overcast
8:54 PM 37.4 °F 30.8 °F 30.2 °F 75% 29.72 in 10.0 mi SSE 9.2 mph - N/A   Overcast
9:13 PM 37.4 °F 30.8 °F 30.2 °F 75% 29.70 in 10.0 mi South 9.2 mph - N/A   Overcast
9:34 PM 37.4 °F 31.4 °F 30.2 °F 75% 29.69 in 10.0 mi South 8.1 mph - N/A   Overcast
9:54 PM 37.4 °F 31.4 °F 32.0 °F 81% 29.69 in 10.0 mi South 8.1 mph - N/A   Overcast
10:14 PM 37.4 °F 30.8 °F 32.0 °F 81% 29.69 in 10.0 mi South 9.2 mph - N/A   Overcast
10:34 PM 37.4 °F 32.1 °F 32.0 °F 81% 29.67 in 10.0 mi South 6.9 mph - N/A   Overcast
10:54 PM 37.4 °F 32.1 °F 32.0 °F 81% 29.66 in 10.0 mi South 6.9 mph - N/A   Overcast
11:14 PM 37.4 °F 31.4 °F 32.0 °F 81% 29.64 in 10.0 mi SSE 8.1 mph - N/A   Overcast
11:34 PM 39.2 °F 32.5 °F 32.0 °F 75% 29.63 in 10.0 mi SSE 10.4 mph - N/A   Overcast
11:54 PM 37.4 °F 32.1 °F 32.0 °F 81% 29.62 in 10.0 mi South 6.9 mph - N/A   Overcast